| time (UTC) | temp F | wind direction | speed MPH | gust MPH | rain 1hr in | rain 24hr in | rain mn in | humidity % | barometer mb |
| 20260906141037 | 92 | 135 | 2.0 | 5.0 | 0.00 | 0.00 | 0.00 | 52 | 1020.8 |
| 20260906140017 | 92 | 158 | 2.0 | 6.0 | 0.00 | 0.00 | 0.00 | 53 | 1020.9 |
| 20260906135036 | 92 | 135 | 2.0 | 5.0 | 0.00 | 0.00 | 0.00 | 52 | 1020.9 |
| 20260906134016 | 93 | 248 | 2.0 | 6.0 | 0.00 | 0.00 | 0.00 | 53 | 1020.9 |
| 20260906133017 | 93 | 158 | 2.0 | 4.0 | 0.00 | 0.00 | 0.00 | 53 | 1021.0 |
| 20260906132016 | 92 | 158 | 2.0 | 4.0 | 0.00 | 0.00 | 0.00 | 54 | 1021.0 |
| 20260906131038 | 92 | 135 | 2.0 | 5.0 | 0.00 | 0.00 | 0.00 | 53 | 1021.1 |
| 20260906130016 | 92 | 158 | 3.0 | 5.0 | 0.00 | 0.00 | 0.00 | 53 | 1021.2 |
| 20260906125016 | 93 | 248 | 2.0 | 6.0 | 0.00 | 0.00 | 0.00 | 54 | 1021.1 |
| 20260906124016 | 93 | 135 | 1.0 | 6.0 | 0.00 | 0.00 | 0.00 | 52 | 1021.3 |
| 20260906123016 | 92 | 158 | 1.0 | 3.0 | 0.00 | 0.00 | 0.00 | 54 | 1021.2 |
| 20260906122016 | 92 | 135 | 1.0 | 6.0 | 0.00 | 0.00 | 0.00 | 53 | 1021.2 |
| 20260906121016 | 92 | 135 | 2.0 | 5.0 | 0.00 | 0.00 | 0.00 | 53 | 1021.1 |
| 20260906120016 | 91 | 135 | 1.0 | 4.0 | 0.00 | 0.00 | 0.00 | 55 | 1021.2 |
| 20260906115016 | 91 | 158 | 2.0 | 4.0 | 0.00 | 0.00 | 0.00 | 55 | 1021.2 |
| 20260906114016 | 90 | 113 | 2.0 | 5.0 | 0.00 | 0.00 | 0.00 | 57 | 1021.1 |
| 20260906113017 | 90 | 135 | 2.0 | 6.0 | 0.00 | 0.00 | 0.00 | 57 | 1021.1 |
| 20260906112016 | 89 | 158 | 2.0 | 5.0 | 0.00 | 0.00 | 0.00 | 58 | 1021.1 |
| 20260906111016 | 89 | 135 | 2.0 | 6.0 | 0.00 | 0.00 | 0.00 | 57 | 1021.2 |
| 20260906110016 | 89 | 135 | 2.0 | 5.0 | 0.00 | 0.00 | 0.00 | 57 | 1021.1 |
| 20260906105017 | 90 | 135 | 2.0 | 5.0 | 0.00 | 0.00 | 0.00 | 57 | 1021.2 |
| 20260906104016 | 89 | 135 | 2.0 | 5.0 | 0.00 | 0.00 | 0.00 | 56 | 1021.1 |
| 20260906103016 | 89 | 135 | 2.0 | 6.0 | 0.00 | 0.00 | 0.00 | 55 | 1021.1 |
| 20260906102016 | 89 | 135 | 2.0 | 5.0 | 0.00 | 0.00 | 0.00 | 52 | 1021.1 |
| 20260906101037 | 88 | 248 | 1.0 | 4.0 | 0.00 | 0.00 | 0.00 | 51 | 1021.1 |
| 20260906100017 | 88 | 135 | 2.0 | 4.0 | 0.00 | 0.00 | 0.00 | 51 | 1021.2 |
| 20260906095016 | 87 | 158 | 1.0 | 4.0 | 0.00 | 0.00 | 0.00 | 53 | 1021.2 |
| 20260906094015 | 87 | 180 | 2.0 | 4.0 | 0.00 | 0.00 | 0.00 | 53 | 1021.2 |
| 20260906093016 | 86 | 248 | 1.0 | 3.0 | 0.00 | 0.00 | 0.00 | 53 | 1021.2 |
| 20260906092015 | 86 | 113 | 1.0 | 3.0 | 0.00 | 0.00 | 0.00 | 55 | 1021.2 |
| 20260906091015 | 85 | 158 | 1.0 | 3.0 | 0.00 | 0.00 | 0.00 | 57 | 1021.2 |
| 20260906090015 | 85 | 248 | 1.0 | 3.0 | 0.00 | 0.00 | 0.00 | 60 | 1021.1 |
| 20260906085015 | 84 | 270 | 1.0 | 3.0 | 0.00 | 0.00 | 0.00 | 61 | 1021.1 |
| 20260906084036 | 84 | 158 | 1.0 | 4.0 | 0.00 | 0.00 | 0.00 | 62 | 1021.1 |
| 20260906083019 | 83 | 225 | 1.0 | 4.0 | 0.00 | 0.00 | 0.00 | 61 | 1020.9 |
| 20260906082015 | 82 | 135 | 1.0 | 3.0 | 0.00 | 0.00 | 0.00 | 62 | 1020.9 |
| 20260906081017 | 82 | 135 | 1.0 | 3.0 | 0.00 | 0.00 | 0.00 | 62 | 1020.8 |
| 20260906080015 | 80 | 158 | 1.0 | 2.0 | 0.00 | 0.00 | 0.00 | 61 | 1020.7 |
| 20260906075016 | 80 | 0.0 | 2.0 | 0.00 | 0.00 | 0.00 | 60 | 1020.7 | |
| 20260906074017 | 79 | 158 | 1.0 | 3.0 | 0.00 | 0.00 | 0.00 | 61 | 1020.6 |
| 20260906073017 | 77 | 0.0 | 1.0 | 0.00 | 0.00 | 0.00 | 61 | 1020.5 | |
| 20260906072017 | 76 | 0.0 | 2.0 | 0.00 | 0.00 | 0.00 | 62 | 1020.4 | |
| 20260906071017 | 75 | 0.0 | 0.0 | 0.00 | 0.00 | 0.00 | 61 | 1020.3 | |
| 20260906070017 | 74 | 0.0 | 2.0 | 0.00 | 0.00 | 0.00 | 66 | 1020.4 | |
| 20260906065017 | 73 | 0.0 | 2.0 | 0.00 | 0.00 | 0.00 | 69 | 1020.2 | |
| 20260906064017 | 71 | 0.0 | 1.0 | 0.00 | 0.00 | 0.00 | 74 | 1020.2 | |
| 20260906063017 | 70 | 0.0 | 0.0 | 0.00 | 0.00 | 0.00 | 78 | 1020.2 | |
| 20260906062017 | 69 | 0.0 | 0.0 | 0.00 | 0.00 | 0.00 | 80 | 1020.2 | |
| 20260906061037 | 68 | 0.0 | 1.0 | 0.00 | 0.00 | 0.00 | 82 | 1020.2 | |
| 20260906060018 | 68 | 0.0 | 0.0 | 0.00 | 0.00 | 0.00 | 83 | 1020.1 | |
| 20260906055017 | 68 | 0.0 | 0.0 | 0.00 | 0.00 | 0.00 | 83 | 1020.1 | |
| 20260906054037 | 68 | 0.0 | 0.0 | 0.00 | 0.00 | 0.00 | 83 | 1020.1 | |
| 20260906053037 | 67 | 0.0 | 0.0 | 0.00 | 0.00 | 0.00 | 82 | 1020.1 | |
| 20260906052017 | 67 | 0.0 | 0.0 | 0.00 | 0.00 | 0.00 | 81 | 1020.0 | |
| 20260906051017 | 68 | 0.0 | 0.0 | 0.00 | 0.00 | 0.00 | 80 | 1019.8 | |
| 20260906050037 | 68 | 0.0 | 0.0 | 0.00 | 0.00 | 0.00 | 79 | 1019.7 | |
| 20260906045017 | 68 | 0.0 | 0.0 | 0.00 | 0.00 | 0.00 | 79 | 1019.6 | |
| 20260906044017 | 68 | 0.0 | 0.0 | 0.00 | 0.00 | 0.00 | 77 | 1019.6 | |
| 20260906043017 | 68 | 0.0 | 0.0 | 0.00 | 0.00 | 0.00 | 77 | 1019.6 | |
| 20260906042017 | 68 | 0.0 | 0.0 | 0.00 | 0.00 | 0.00 | 77 | 1019.5 | |
| 20260906041017 | 68 | 0.0 | 0.0 | 0.00 | 0.00 | 0.00 | 76 | 1019.5 | |
| 20260906040058 | 68 | 0.0 | 0.0 | 0.00 | 0.00 | 0.00 | 75 | 1019.4 | |
| 20260906035037 | 68 | 0.0 | 0.0 | 0.00 | 0.00 | 0.00 | 76 | 1019.3 | |
| 20260906034017 | 68 | 0.0 | 0.0 | 0.00 | 0.00 | 0.00 | 75 | 1019.3 | |
| 20260906033016 | 68 | 0.0 | 0.0 | 0.00 | 0.00 | 0.00 | 76 | 1019.1 | |
| 20260906032016 | 68 | 0.0 | 0.0 | 0.00 | 0.00 | 0.00 | 77 | 1019.0 | |
| 20260906031017 | 68 | 0.0 | 1.0 | 0.00 | 0.00 | 0.00 | 77 | 1018.9 | |
| 20260906030016 | 69 | 0.0 | 0.0 | 0.00 | 0.00 | 0.00 | 78 | 1018.8 | |
| 20260906025036 | 69 | 0.0 | 0.0 | 0.00 | 0.00 | 0.00 | 80 | 1018.8 | |
| 20260906024016 | 70 | 0.0 | 0.0 | 0.00 | 0.00 | 0.00 | 81 | 1018.9 | |
| 20260906023017 | 70 | 0.0 | 0.0 | 0.00 | 0.00 | 0.00 | 82 | 1018.9 | |
| 20260906022016 | 70 | 0.0 | 2.0 | 0.00 | 0.00 | 0.00 | 82 | 1018.9 | |
| 20260906021017 | 71 | 0.0 | 0.0 | 0.00 | 0.00 | 0.00 | 82 | 1019.0 | |
| 20260906020018 | 71 | 0.0 | 0.0 | 0.00 | 0.00 | 0.00 | 82 | 1019.0 | |
| 20260906015017 | 71 | 0.0 | 0.0 | 0.00 | 0.00 | 0.00 | 82 | 1019.0 | |
| 20260906014036 | 72 | 0.0 | 0.0 | 0.00 | 0.00 | 0.00 | 82 | 1019.1 | |
| 20260906013037 | 72 | 0.0 | 0.0 | 0.00 | 0.00 | 0.00 | 83 | 1019.3 | |
| 20260906012016 | 73 | 0.0 | 0.0 | 0.00 | 0.00 | 0.00 | 83 | 1019.3 | |
| 20260906011016 | 73 | 0.0 | 0.0 | 0.00 | 0.00 | 0.00 | 83 | 1019.2 | |
| 20260906010016 | 73 | 0.0 | 0.0 | 0.00 | 0.00 | 0.00 | 84 | 1019.1 | |
| 20260906005016 | 73 | 0.0 | 0.0 | 0.00 | 0.00 | 0.00 | 84 | 1019.0 | |
| 20260906004016 | 73 | 0.0 | 0.0 | 0.00 | 0.00 | 0.00 | 84 | 1019.1 | |
| 20260906003016 | 73 | 0.0 | 0.0 | 0.00 | 0.00 | 0.00 | 84 | 1019.2 | |
| 20260906002036 | 73 | 0.0 | 0.0 | 0.00 | 0.00 | 0.00 | 84 | 1019.3 | |
| 20260906001017 | 73 | 0.0 | 1.0 | 0.00 | 0.00 | 0.00 | 84 | 1019.2 | |
| 20260906000016 | 73 | 0.0 | 0.0 | 0.00 | 0.00 | 0.00 | 84 | 1019.3 | |
| 20260905235036 | 73 | 0.0 | 0.0 | 0.00 | 0.00 | 0.00 | 84 | 1019.3 | |
| 20260905234016 | 73 | 0.0 | 0.0 | 0.00 | 0.00 | 0.00 | 84 | 1019.1 | |
| 20260905233016 | 73 | 0.0 | 0.0 | 0.00 | 0.00 | 0.00 | 84 | 1019.2 | |
| 20260905232016 | 73 | 0.0 | 2.0 | 0.00 | 0.00 | 0.00 | 84 | 1019.2 | |
| 20260905231016 | 73 | 0.0 | 1.0 | 0.00 | 0.00 | 0.00 | 84 | 1019.1 | |
| 20260905230036 | 73 | 0.0 | 0.0 | 0.00 | 0.00 | 0.00 | 83 | 1019.2 | |
| 20260905225016 | 73 | 0.0 | 1.0 | 0.00 | 0.00 | 0.00 | 83 | 1019.2 | |
| 20260905224016 | 73 | 0.0 | 1.0 | 0.00 | 0.00 | 0.00 | 83 | 1019.1 | |
| 20260905223016 | 73 | 0.0 | 0.0 | 0.00 | 0.00 | 0.00 | 83 | 1019.0 | |
| 20260905222016 | 73 | 0.0 | 1.0 | 0.00 | 0.00 | 0.00 | 83 | 1019.0 | |
| 20260905221016 | 73 | 0.0 | 0.0 | 0.00 | 0.00 | 0.00 | 83 | 1018.9 | |
| 20260905220036 | 73 | 0.0 | 0.0 | 0.00 | 0.00 | 0.00 | 83 | 1018.8 | |
| 20260905215036 | 73 | 0.0 | 0.0 | 0.00 | 0.00 | 0.00 | 83 | 1018.8 | |
| 20260905214016 | 73 | 0.0 | 0.0 | 0.00 | 0.00 | 0.00 | 83 | 1018.8 | |
| 20260905213016 | 73 | 0.0 | 0.0 | 0.00 | 0.00 | 0.00 | 84 | 1018.9 | |
| 20260905212017 | 73 | 0.0 | 0.0 | 0.00 | 0.00 | 0.00 | 84 | 1018.9 | |
| 20260905211036 | 73 | 0.0 | 0.0 | 0.00 | 0.00 | 0.00 | 84 | 1018.9 | |
| 20260905210017 | 73 | 0.0 | 0.0 | 0.00 | 0.00 | 0.00 | 83 | 1018.9 | |
| 20260905205016 | 73 | 0.0 | 0.0 | 0.00 | 0.00 | 0.00 | 83 | 1018.9 | |
| 20260905204015 | 73 | 0.0 | 0.0 | 0.00 | 0.00 | 0.00 | 82 | 1018.8 | |
| 20260905203015 | 73 | 0.0 | 0.0 | 0.00 | 0.00 | 0.00 | 82 | 1018.7 | |
| 20260905202015 | 73 | 0.0 | 0.0 | 0.00 | 0.00 | 0.00 | 81 | 1018.5 | |
| 20260905201016 | 73 | 0.0 | 0.0 | 0.00 | 0.00 | 0.00 | 81 | 1018.4 | |
| 20260905200016 | 73 | 0.0 | 0.0 | 0.00 | 0.00 | 0.00 | 81 | 1018.3 | |
| 20260905195015 | 74 | 0.0 | 0.0 | 0.00 | 0.00 | 0.00 | 82 | 1018.4 | |
| 20260905194017 | 74 | 0.0 | 0.0 | 0.00 | 0.00 | 0.00 | 82 | 1018.4 | |
| 20260905193017 | 74 | 0.0 | 1.0 | 0.00 | 0.00 | 0.00 | 81 | 1018.1 | |
| 20260905192017 | 75 | 0.0 | 0.0 | 0.00 | 0.00 | 0.00 | 81 | 1018.0 | |
| 20260905191019 | 75 | 0.0 | 0.0 | 0.00 | 0.00 | 0.00 | 81 | 1017.9 | |
| 20260905190017 | 76 | 0.0 | 0.0 | 0.00 | 0.00 | 0.00 | 81 | 1017.9 | |
| 20260905185017 | 76 | 0.0 | 0.0 | 0.00 | 0.00 | 0.00 | 80 | 1017.9 | |
| 20260905184017 | 77 | 0.0 | 1.0 | 0.00 | 0.00 | 0.00 | 80 | 1017.8 | |
| 20260905183037 | 77 | 0.0 | 0.0 | 0.00 | 0.00 | 0.00 | 79 | ||
| 20260905182017 | 78 | 0.0 | 0.0 | 0.00 | 0.00 | 0.00 | 79 | ||
| 20260905181037 | 78 | 0.0 | 0.0 | 0.00 | 0.00 | 0.00 | 78 | ||
| 20260905180037 | 79 | 0.0 | 0.0 | 0.00 | 0.00 | 0.00 | 78 | ||
| 20260905175017 | 79 | 0.0 | 0.0 | 0.00 | 0.00 | 0.00 | 77 | ||
| 20260905174017 | 80 | 0.0 | 0.0 | 0.00 | 0.00 | 0.00 | 76 | ||
| 20260905173017 | 80 | 0.0 | 0.0 | 0.00 | 0.00 | 0.00 | 76 | ||
| 20260905172017 | 81 | 0.0 | 0.0 | 0.00 | 0.00 | 0.00 | 74 | ||
| 20260905171017 | 81 | 0.0 | 0.0 | 0.00 | 0.00 | 0.00 | 73 | ||
| 20260905170017 | 82 | 0.0 | 1.0 | 0.00 | 0.00 | 0.00 | 72 | ||
| 20260905165017 | 83 | 225 | 1.0 | 3.0 | 0.00 | 0.00 | 0.00 | 71 | |
| 20260905164017 | 83 | 0.0 | 1.0 | 0.00 | 0.00 | 0.00 | 70 | ||
| 20260905163017 | 84 | 0.0 | 2.0 | 0.00 | 0.00 | 0.00 | 69 | ||
| 20260905162037 | 85 | 0.0 | 2.0 | 0.00 | 0.00 | 0.00 | 68 | ||
| 20260905161017 | 85 | 180 | 1.0 | 5.0 | 0.00 | 0.00 | 0.00 | 68 | |
| 20260905160018 | 85 | 248 | 1.0 | 3.0 | 0.00 | 0.00 | 0.00 | 68 | |
| 20260905155017 | 84 | 248 | 1.0 | 4.0 | 0.00 | 0.00 | 0.00 | 69 | |
| 20260905154018 | 84 | 180 | 2.0 | 5.0 | 0.00 | 0.00 | 0.00 | 69 | |
| 20260905153037 | 84 | 158 | 2.0 | 6.0 | 0.00 | 0.00 | 0.00 | 70 | |
| 20260905152017 | 83 | 248 | 1.0 | 3.0 | 0.00 | 0.00 | 0.00 | 71 | |
| 20260905151017 | 82 | 0.0 | 2.0 | 0.00 | 0.00 | 0.00 | 72 | ||
| 20260905150017 | 83 | 135 | 2.0 | 4.0 | 0.00 | 0.00 | 0.00 | 71 | |
| 20260905145018 | 83 | 180 | 1.0 | 5.0 | 0.00 | 0.00 | 0.00 | 71 | |
| 20260905144056 | 83 | 225 | 1.0 | 3.0 | 0.00 | 0.00 | 0.00 | 70 | |
| 20260905143016 | 83 | 135 | 1.0 | 3.0 | 0.00 | 0.00 | 0.00 | 69 | |
| 20260905142017 | 84 | 248 | 2.0 | 4.0 | 0.00 | 0.00 | 0.00 | 69 |